Погода в Кукобое

Россия / Ярославская область     58°41′53″N   39°54′27″E
темп.,
°C
ветер,
м/с
пор.,
м/с
влажн.,
%
обл.,
%
осадки,
мм/ч
давл.,
гПа
погр.,
м
8 мая, сб
сб800:00+4ю27865 0.0 1012134
03:00+3ю288799 0.0 1012150
06:00+6ююв31175100 0.0 1012322
09:00+11ююв51257100 0.0 10111071
12:00+12ююв61357100 0.0 10101998
15:00+9ююв61274100 0.6 10091395
18:00+8ююв51286100 0.9 10071359
21:00+7юв51294100 7.6 10061187
9 мая, вс
вс900:00+7вюв41195100 6.2 1002858
03:00+8вюв2698100 9.7 1001289
06:00+7ссз1199100 2.5 100162
09:00+4сз51196100 3.9 1004670
12:00+2сз51397100 2.3 1008696
15:00+6сз61088100 4.5 10121099
18:00+6сз5127118 0.1 10151128
21:00+2зсз38865 0.1 1019141
10 мая, пн
пн1000:00+1зсз27915 0.0 1021132
03:00+1зсз27955 0.0 1024142
06:00+3зсз14825 0.0 1026108
09:00+9зюз235229 0.0 1027634
12:00+12юз344043 0.0 10271394
15:00+13зюз463826 0.0 10281775
18:00+10юз2765100 0.0 1028242
21:00+8ююз397651 0.0 1029241
11 мая, вт
вт1100:00+6ююз278542 0.0 1030133
03:00+5ююз268979 0.0 1030112
06:00+8юз26835 0.0 1031154
09:00+14юз35635 0.0 1031476
12:00+18юз345458 0.0 10311179
15:00+19юз345198 0.0 10301340
18:00+17з2467100 0.0 1030171
21:00+12ю11851 0.0 103010
12 мая, ср
ср1200:00+10ю22930 0.0 103124
03:00+9ю11931 0.0 103111
06:00+11ю12830 0.0 103179
09:00+17ююв34570 0.0 1031624
12:00+20ююв34460 0.0 10301235
15:00+21юв34440 0.0 10291492
18:00+20ююв25550 0.0 1028497
21:00+13ю12805 0.0 102910